DG2GBZ-3 Weather Reports


time (UTC)temp
C
wind
direction
speed
KPH
gust
KPH
rain 1hr
cm
rain 24hr
cm
rain mn
cm
humidity
%
barometer
mb
20260506200636 7 0.0 0.0 0.00 0.00 0.00 1012.6
20260506195635 7 0.0 0.0 0.00 0.00 0.00 1012.4
20260506194635 7 0.0 0.0 0.00 0.00 0.00 1012.3
20260506193634 7 0.0 0.0 0.00 0.00 0.00 1012.1
20260506192634 7 0.0 0.0 0.00 0.00 0.00 1012.0
20260506191633 7 0.0 0.0 0.00 0.00 0.00 1012.0
20260506190633 8 0.0 0.0 0.00 0.00 0.00 1011.9
20260506185632 8 0.0 0.0 0.00 0.00 0.00 1011.8
20260506184632 8 0.0 0.0 0.00 0.00 0.00 1011.6
20260506183632 8 0.0 0.0 0.00 0.00 0.00 1011.6
20260506182631 8 0.0 0.0 0.00 0.00 0.00 1011.4
20260506181631 8 0.0 0.0 0.00 0.00 0.00 1011.3
20260506180630 9 0.0 0.0 0.00 0.00 0.00 1011.3
20260506175630 9 0.0 0.0 0.00 0.00 0.00 1011.2
20260506174629 10 0.0 0.0 0.00 0.00 0.00 1010.9
20260506173629 10 0.0 0.0 0.00 0.00 0.00 1010.9
20260506172628 10 0.0 0.0 0.00 0.00 0.00 1010.6
20260506171628 10 0.0 0.0 0.00 0.00 0.00 1010.5
20260506170627 10 0.0 0.0 0.00 0.00 0.00 1010.4
20260506165627 10 0.0 0.0 0.00 0.00 0.00 1010.4
20260506164626 10 0.0 0.0 0.00 0.00 0.00 1010.4
20260506163626 10 0.0 0.0 0.00 0.00 0.00 1010.5
20260506162625 10 0.0 0.0 0.00 0.00 0.00 1010.5
20260506161625 11 0.0 0.0 0.00 0.00 0.00 1010.6
20260506160624 11 0.0 0.0 0.00 0.00 0.00 1010.6
20260506155624 11 0.0 0.0 0.00 0.00 0.00 1010.5
20260506154623 11 0.0 0.0 0.00 0.00 0.00 1010.5
20260506153623 11 0.0 0.0 0.00 0.00 0.00 1010.4
20260506152623 11 0.0 0.0 0.00 0.00 0.00 1010.3
20260506151622 11 0.0 0.0 0.00 0.00 0.00 1010.2
20260506150622 12 0.0 0.0 0.00 0.00 0.00 1010.1
20260506145621 12 0.0 0.0 0.00 0.00 0.00 1010.0
20260506144621 12 0.0 0.0 0.00 0.00 0.00 1009.9
20260506143620 12 0.0 0.0 0.00 0.00 0.00 1009.8
20260506142620 13 0.0 0.0 0.00 0.00 0.00 1009.8
20260506141619 15 0.0 0.0 0.00 0.00 0.00 1009.6
20260506140619 14 0.0 0.0 0.00 0.00 0.00 1009.5
20260506135618 15 0.0 0.0 0.00 0.00 0.00 1009.4
20260506134618 16 0.0 0.0 0.00 0.00 0.00 1009.3
20260506133617 16 0.0 0.0 0.00 0.00 0.00 1009.3
20260506132617 16 0.0 0.0 0.00 0.00 0.00 1009.2
20260506131616 16 0.0 0.0 0.00 0.00 0.00 1009.2
20260506130616 16 0.0 0.0 0.00 0.00 0.00 1009.1
20260506125615 16 0.0 0.0 0.00 0.00 0.00 1009.0
20260506124615 16 0.0 0.0 0.00 0.00 0.00 1009.0
20260506123614 16 0.0 0.0 0.00 0.00 0.00 1009.0
20260506122614 17 0.0 0.0 0.00 0.00 0.00 1008.8
20260506121613 17 0.0 0.0 0.00 0.00 0.00 1008.8
20260506120613 18 0.0 0.0 0.00 0.00 0.00 1008.7
20260506115612 18 0.0 0.0 0.00 0.00 0.00 1008.4
20260506114612 17 0.0 0.0 0.00 0.00 0.00 1008.3
20260506113611 18 0.0 0.0 0.00 0.00 0.00 1008.2
20260506112611 18 0.0 0.0 0.00 0.00 0.00 1008.2
20260506111610 18 0.0 0.0 0.00 0.00 0.00 1008.4
20260506110610 18 0.0 0.0 0.00 0.00 0.00 1008.4
20260506105609 20 0.0 0.0 0.00 0.00 0.00 1008.2
20260506104609 20 0.0 0.0 0.00 0.00 0.00 1008.3
20260506103608 20 0.0 0.0 0.00 0.00 0.00 1008.4
20260506102607 20 0.0 0.0 0.00 0.00 0.00 1008.5
20260506101607 21 0.0 0.0 0.00 0.00 0.00 1008.4
20260506100606 21 0.0 0.0 0.00 0.00 0.00 1008.4
20260506095606 21 0.0 0.0 0.00 0.00 0.00 1008.5
20260506094605 21 0.0 0.0 0.00 0.00 0.00 1008.6
20260506093605 22 0.0 0.0 0.00 0.00 0.00 1008.6
20260506092604 21 0.0 0.0 0.00 0.00 0.00 1008.5
20260506091604 21 0.0 0.0 0.00 0.00 0.00 1008.5
20260506090603 22 0.0 0.0 0.00 0.00 0.00 1008.6
20260506085603 22 0.0 0.0 0.00 0.00 0.00 1008.5
20260506084602 21 0.0 0.0 0.00 0.00 0.00 1008.5
20260506083602 21 0.0 0.0 0.00 0.00 0.00 1008.5
20260506082601 20 0.0 0.0 0.00 0.00 0.00 1008.4
20260506081601 16 0.0 0.0 0.00 0.00 0.00 1008.5
20260506080600 16 0.0 0.0 0.00 0.00 0.00 1008.7
20260506072558 13 0.0 0.0 0.00 0.00 0.00 1009.0
20260506071558 12 0.0 0.0 0.00 0.00 0.00 1009.0
20260506070557 11 0.0 0.0 0.00 0.00 0.00 1008.9
20260506061555 8 0.0 0.0 0.00 0.00 0.00 1008.9
20260506060555 7 0.0 0.0 0.00 0.00 0.00 1009.0
20260506050552 6 0.0 0.0 0.00 0.00 0.00 1009.4
20260506044551 6 0.0 0.0 0.00 0.00 0.00 1009.5
20260506043551 6 0.0 0.0 0.00 0.00 0.00 1009.5
20260506042550 6 0.0 0.0 0.00 0.00 0.00 1009.5
20260506041550 7 0.0 0.0 0.00 0.00 0.00 1009.6
20260506040549 6 0.0 0.0 0.00 0.00 0.00 1009.6
20260506035549 6 0.0 0.0 0.00 0.00 0.00 1009.7
20260506034548 6 0.0 0.0 0.00 0.00 0.00 1009.6
20260506033548 6 0.0 0.0 0.00 0.00 0.00 1009.6
20260506032547 6 0.0 0.0 0.00 0.00 0.00 1009.8
20260506031548 6 0.0 0.0 0.00 0.00 0.00 1010.0
20260506030547 7 0.0 0.0 0.00 0.00 0.00 1009.9
20260506025546 7 0.0 0.0 0.00 0.00 0.00 1010.0
20260506024546 7 0.0 0.0 0.00 0.00 0.00 1010.1
20260506023545 7 0.0 0.0 0.00 0.00 0.00 1010.3
20260506022545 7 0.0 0.0 0.00 0.00 0.00 1010.4
20260506021544 8 0.0 0.0 0.00 0.00 0.00 1010.4
20260506020544 7 0.0 0.0 0.00 0.00 0.00 1010.2
20260506011542 7 0.0 0.0 0.00 0.00 0.00 1010.9
20260506010541 7 0.0 0.0 0.00 0.00 0.00 1011.0
20260506005541 8 0.0 0.0 0.00 0.00 0.00 1010.8
20260506004541 7 0.0 0.0 0.00 0.00 0.00 1010.8
20260506003540 8 0.0 0.0 0.00 0.00 0.00 1010.7
20260506002540 8 0.0 0.0 0.00 0.00 0.00 1010.8
20260506001540 8 0.0 0.0 0.00 0.00 0.00 1010.9
20260506000539 8 0.0 0.0 0.00 0.00 0.00 1011.0
20260505235539 8 0.0 0.0 0.00 0.00 0.00 1011.1
20260505234539 9 0.0 0.0 0.00 0.00 0.00 1011.2
20260505233538 8 0.0 0.0 0.00 0.00 0.00 1011.3
20260505232538 8 0.0 0.0 0.00 0.00 0.00 1011.4
20260505231538 8 0.0 0.0 0.00 0.00 0.00 1011.5
20260505230538 8 0.0 0.0 0.00 0.00 0.00 1011.6
20260505225537 8 0.0 0.0 0.00 0.00 0.00 1011.6
20260505224537 8 0.0 0.0 0.00 0.00 0.00 1011.5
20260505223537 8 0.0 0.0 0.00 0.00 0.00 1011.5
20260505222536 8 0.0 0.0 0.00 0.00 0.00 1011.6
20260505221536 8 0.0 0.0 0.00 0.00 0.00 1011.6
20260505220536 9 0.0 0.0 0.00 0.00 0.00 1011.6
20260505215535 9 0.0 0.0 0.00 0.00 0.00 1011.6
20260505214535 9 0.0 0.0 0.00 0.00 0.00 1011.6
20260505213535 9 0.0 0.0 0.00 0.00 0.00 1011.8
20260505212534 9 0.0 0.0 0.00 0.00 0.00 1011.7
20260505211534 10 0.0 0.0 0.00 0.00 0.00 1011.9
20260505210534 10 0.0 0.0 0.00 0.00 0.00 1011.7
20260505205534 10 0.0 0.0 0.00 0.00 0.00 1011.7
20260505204533 10 0.0 0.0 0.00 0.00 0.00 1011.5
20260505203533 10 0.0 0.0 0.00 0.00 0.00 1011.3
20260505202533 10 0.0 0.0 0.00 0.00 0.00 1011.3